GW0714 Weather Reports


Display with metric or nautical units.
time (UTC)temp
F
wind
direction
speed
MPH
gust
MPH
rain 1hr
in
rain 24hr
in
rain mn
in
humidity
%
barometer
mb
20260502194541 66 27 1.0 4.0 0.00 0.00 0.00 54 1013.2
20260502194028 66 128 0.0 4.0 0.00 0.00 0.00 59 1013.3
20260502193531 65 0 1.0 5.0 0.00 0.00 0.00 62 1013.3
20260502193042 65 5 1.0 5.0 0.00 0.00 0.00 61 1013.4
20260502192531 64 141 1.0 4.0 0.00 0.00 0.00 64 1013.5
20260502192031 64 151 1.0 4.0 0.00 0.00 0.00 64 1013.5
20260502191543 64 0 0.0 3.0 0.00 0.00 0.00 64 1013.4
20260502191034 63 146 1.0 4.0 0.00 0.00 0.00 67 1013.4
20260502190531 63 97 1.0 4.0 0.00 0.00 0.00 68 1013.4
20260502190045 63 154 1.0 4.0 0.00 0.00 0.00 67 1013.3
20260502185531 62 360 0.0 3.0 0.00 0.00 0.00 70 1013.3
20260502185031 62 146 1.0 4.0 0.00 0.00 0.00 70 1013.2
20260502184535 62 143 1.0 7.0 0.00 0.00 0.00 71 1013.3
20260502184031 62 167 2.0 7.0 0.00 0.00 0.00 70 1013.2
20260502183531 63 153 3.0 7.0 0.00 0.00 0.00 68 1013.3
20260502183040 63 146 3.0 7.0 0.00 0.00 0.00 69 1013.3
20260502182531 64 157 2.0 7.0 0.00 0.00 0.00 69 1013.3
20260502182032 65 145 2.0 7.0 0.00 0.00 0.00 67 1013.3
20260502181539 64 330 1.0 5.0 0.00 0.00 0.00 65 1013.4
20260502181031 64 0 0.0 5.0 0.00 0.00 0.00 72 1013.3
20260502180529 63 144 1.0 5.0 0.00 0.00 0.00 75 1013.4
20260502164030 68 325 2.0 4.0 0.00 0.00 0.00 63 1012.7
20260502163529 68 5 1.0 4.0 0.00 0.00 0.00 62 1012.8
20260502163049 68 333 2.0 4.0 0.00 0.00 0.00 62 1012.8
20260502162531 68 0 1.0 4.0 0.00 0.00 0.00 59 1012.8
20260502162033 68 334 0.0 3.0 0.00 0.00 0.00 60 1012.8
20260502161539 67 0 0.0 3.0 0.00 0.00 0.00 59 1012.8
20260502161030 67 0 0.0 3.0 0.00 0.00 0.00 60 1012.7
20260502160530 67 0 0.0 3.0 0.00 0.00 0.00 62 1012.8
20260502152031 62 0 0.0 2.0 0.00 0.00 0.00 69 1012.7
20260502151557 62 0 0.0 2.0 0.00 0.00 0.00 69 1012.7
20260502151032 61 0 0.0 1.0 0.00 0.00 0.00 70 1012.7
20260502150531 61 0 0.0 1.0 0.00 0.00 0.00 70 1012.7
20260502130530 58 265 0.0 2.0 0.00 0.00 0.00 70 1011.7
20260502123529 59 0 0.0 2.0 0.00 0.00 0.00 69 1011.5
20260502123043 59 0 0.0 2.0 0.00 0.00 0.00 69 1011.5
20260502122530 59 0 1.0 2.0 0.00 0.00 0.00 69 1011.4
20260502122033 59 260 1.0 3.0 0.00 0.00 0.00 69 1011.4
20260502121540 59 251 1.0 3.0 0.00 0.00 0.00 69 1011.4
20260502121031 59 246 1.0 3.0 0.00 0.00 0.00 69 1011.5
20260502120533 60 263 1.0 3.0 0.00 0.00 0.00 69 1011.5
20260502115530 60 277 0.0 2.0 0.00 0.00 0.00 68 1011.5
20260502115030 60 275 0.0 3.0 0.00 0.00 0.00 69 1011.4
20260502114539 60 283 0.0 3.0 0.00 0.00 0.00 69 1011.5
20260502114030 60 319 1.0 3.0 0.00 0.00 0.00 69 1011.5
20260502113531 60 272 1.0 3.0 0.00 0.00 0.00 69 1011.7
20260502113048 60 0 0.0 2.0 0.00 0.00 0.00 69 1011.8
20260502112529 60 0 0.0 2.0 0.00 0.00 0.00 69 1011.7
20260502112030 60 286 0.0 3.0 0.00 0.00 0.00 69 1011.8
20260502111547 60 304 1.0 3.0 0.00 0.00 0.00 68 1011.7
20260502111030 61 261 1.0 3.0 0.00 0.00 0.00 68 1011.8
20260502110531 61 322 1.0 3.0 0.00 0.00 0.00 68 1011.8
20260502110039 61 257 0.0 3.0 0.00 0.00 0.00 68 1011.7
20260502105533 61 236 0.0 3.0 0.00 0.00 0.00 68 1011.8
20260502105030 61 286 0.0 3.0 0.00 0.00 0.00 69 1011.8
20260502104540 61 284 1.0 3.0 0.00 0.00 0.00 69 1011.8
20260502104030 61 254 1.0 2.0 0.00 0.00 0.00 69 1011.8
20260502103530 61 273 1.0 2.0 0.00 0.00 0.00 69 1011.9
20260502103035 61 255 1.0 2.0 0.00 0.00 0.00 69 1011.9
20260502102529 61 263 0.0 3.0 0.00 0.00 0.00 69 1011.9
20260502102030 61 0 1.0 3.0 0.00 0.00 0.00 69 1011.9
20260502101537 61 289 0.0 3.0 0.00 0.00 0.00 70 1011.9
20260502101031 61 269 0.0 3.0 0.00 0.00 0.00 70 1011.9
20260502100531 61 0 1.0 3.0 0.00 0.00 0.00 70 1012.0
20260502091031 62 0 1.0 3.0 0.00 0.00 0.00 71 1012.3
20260502090530 62 250 1.0 3.0 0.00 0.00 0.00 71 1012.3
20260502090109 62 275 1.0 3.0 0.00 0.00 0.00 71 1012.5
20260502071033 63 0 0.0 2.0 0.00 0.00 0.00 74 1013.0
20260502070530 63 0 0.0 2.0 0.00 0.00 0.00 73 1013.0
20260502070055 63 0 0.0 2.0 0.00 0.00 0.00 73 1013.1
20260502065530 63 0 0.0 2.0 0.00 0.00 0.00 73 1013.1
20260502065028 64 218 0.0 2.0 0.00 0.00 0.00 74 1013.1
20260502064553 64 0 0.0 3.0 0.00 0.00 0.00 73 1013.1
20260502064030 64 256 0.0 3.0 0.00 0.00 0.00 73 1013.1
20260502063530 64 253 0.0 2.0 0.00 0.00 0.00 73 1013.1
20260502063042 64 0 0.0 2.0 0.00 0.00 0.00 72 1013.1
20260502062531 64 275 0.0 3.0 0.00 0.00 0.00 72 1013.1
20260502062031 64 286 0.0 3.0 0.00 0.00 0.00 72 1013.1
20260502061543 64 262 0.0 2.0 0.00 0.00 0.00 71 1013.1
20260502061030 64 279 0.0 2.0 0.00 0.00 0.00 71 1013.1
20260502060529 64 0 0.0 2.0 0.00 0.00 0.00 71 1013.1
20260502060038 65 0 0.0 2.0 0.00 0.00 0.00 71 1013.1
20260502055531 65 269 0.0 2.0 0.00 0.00 0.00 70 1013.1
20260502055031 65 0 0.0 0.0 0.00 0.00 0.00 70 1013.2
20260502054538 65 0 0.0 1.0 0.00 0.00 0.00 70 1013.1
20260502054030 65 0 0.0 1.0 0.00 0.00 0.00 70 1013.1
20260502053530 66 248 0.0 1.0 0.00 0.00 0.00 69 1013.2
20260502053038 66 258 0.0 1.0 0.00 0.00 0.00 69 1013.2
20260502052530 66 0 0.0 0.0 0.00 0.00 0.00 68 1013.3
20260502052030 66 0 0.0 0.0 0.00 0.00 0.00 68 1013.2
20260502051548 66 0 0.0 0.0 0.00 0.00 0.00 68 1013.2
20260502051030 66 0 0.0 0.0 0.00 0.00 0.00 67 1013.2
20260502050533 67 0 0.0 0.0 0.00 0.00 0.00 67 1013.2
20260502050042 67 0 0.0 0.0 0.00 0.00 0.00 67 1013.2
20260502045530 67 0 0.0 0.0 0.00 0.00 0.00 67 1013.1
20260502045030 67 0 0.0 0.0 0.00 0.00 0.00 66 1013.2
20260502044542 67 0 0.0 0.0 0.00 0.00 0.00 66 1013.2
20260502044027 67 0 0.0 0.0 0.00 0.00 0.00 65 1013.2
20260502043529 68 0 0.0 0.0 0.00 0.00 0.00 65 1013.1
20260502043039 68 0 0.0 1.0 0.00 0.00 0.00 64 1012.9
20260502042531 68 0 0.0 1.0 0.00 0.00 0.00 64 1012.8
20260502042032 68 0 0.0 1.0 0.00 0.00 0.00 63 1012.9
20260502041553 69 294 0.0 1.0 0.00 0.00 0.00 62 1012.9
20260502041029 69 0 0.0 3.0 0.00 0.00 0.00 62 1012.8
20260502040530 69 0 0.0 3.0 0.00 0.00 0.00 62 1012.8
20260502040048 69 331 2.0 3.0 0.00 0.00 0.00 62 1012.7
20260502035530 70 347 0.0 2.0 0.00 0.00 0.00 60 1012.7
20260502035027 70 347 0.0 2.0 0.00 0.00 0.00 60 1012.6
20260502034533 70 0 0.0 2.0 0.00 0.00 0.00 59 1012.5
20260502034027 70 0 0.0 2.0 0.00 0.00 0.00 58 1012.5
20260502033530 70 0 0.0 2.0 0.00 0.00 0.00 57 1012.5
20260502033042 71 0 0.0 2.0 0.00 0.00 0.00 57 1012.4
20260502032530 71 0 0.0 2.0 0.00 0.00 0.00 57 1012.4
20260502032027 71 0 0.0 3.0 0.00 0.00 0.00 57 1012.4
20260502031537 71 352 1.0 3.0 0.00 0.00 0.00 57 1012.3
20260502031030 71 0 0.0 1.0 0.00 0.00 0.00 57 1012.2
20260502030530 71 0 0.0 1.0 0.00 0.00 0.00 57 1012.3
20260502030039 71 0 0.0 1.0 0.00 0.00 0.00 57 1012.2
20260502025530 71 0 0.0 2.0 0.00 0.00 0.00 56 1012.2
20260502025030 72 0 0.0 2.0 0.00 0.00 0.00 56 1012.2
20260502024536 72 340 0.0 2.0 0.00 0.00 0.00 56 1012.2
20260502024033 72 0 0.0 2.0 0.00 0.00 0.00 56 1012.2
20260502023530 72 0 1.0 2.0 0.00 0.00 0.00 55 1012.2
20260502023102 72 0 0.0 2.0 0.00 0.00 0.00 55 1012.2
20260502022530 72 0 0.0 2.0 0.00 0.00 0.00 55 1012.1
20260502022029 73 0 0.0 2.0 0.00 0.00 0.00 54 1012.1
20260502021541 73 0 0.0 2.0 0.00 0.00 0.00 53 1012.2
20260502021030 73 0 0.0 2.0 0.00 0.00 0.00 53 1012.1
20260502020536 73 333 0.0 1.0 0.00 0.00 0.00 53 1012.1
20260502020037 74 0 0.0 1.0 0.00 0.00 0.00 53 1012.1
20260502015533 74 0 0.0 2.0 0.00 0.00 0.00 53 1012.2
20260502015032 74 0 0.0 3.0 0.00 0.00 0.00 52 1012.2
20260502014539 74 333 0.0 3.0 0.00 0.00 0.00 51 1012.2
20260502014030 75 0 0.0 5.0 0.00 0.00 0.00 53 1012.3
20260502013531 75 349 1.0 5.0 0.00 0.00 0.00 51 1012.3
20260502013034 75 352 2.0 5.0 0.00 0.00 0.00 50 1012.4
20260502012530 75 0 1.0 4.0 0.00 0.00 0.00 51 1012.3
20260502012030 76 318 1.0 4.0 0.00 0.00 0.00 50 1012.4
20260502011536 76 16 1.0 4.0 0.00 0.00 0.00 46 1012.3
20260502011028 76 360 1.0 4.0 0.00 0.00 0.00 45 1012.4
20260502010526 77 0 2.0 5.0 0.00 0.00 0.00 45 1012.4
20260502010037 77 0 1.0 5.0 0.00 0.00 0.00 45 1012.4
20260502005531 77 352 2.0 5.0 0.00 0.00 0.00 44 1012.5
20260502005029 77 318 1.0 5.0 0.00 0.00 0.00 44 1012.5
20260502004538 77 331 2.0 5.0 0.00 0.00 0.00 42 1012.5
20260502004029 77 0 0.0 4.0 0.00 0.00 0.00 46 1012.4
20260502003531 77 0 0.0 4.0 0.00 0.00 0.00 44 1012.5
20260502003037 77 18 1.0 4.0 0.00 0.00 0.00 42 1012.5
20260502002530 77 333 1.0 4.0 0.00 0.00 0.00 42 1012.6
20260502002030 78 0 1.0 4.0 0.00 0.00 0.00 43 1012.6
20260502001551 78 327 2.0 4.0 0.00 0.00 0.00 43 1012.7
20260502001030 78 352 2.0 4.0 0.00 0.00 0.00 43 1012.7
20260502000529 78 29 2.0 4.0 0.00 0.00 0.00 42 1012.7
20260502000101 78 0 0.0 3.0 0.00 0.00 0.00 45 1012.7
20260501235530 78 0 0.0 5.0 0.00 0.00 0.00 42 1012.7
20260501235033 78 0 1.0 5.0 0.00 0.00 0.00 43 1012.9
20260501234540 78 0 0.0 3.0 0.00 0.00 0.00 45 1013.0
20260501234033 78 352 1.0 3.0 0.00 0.00 0.00 46 1013.0
20260501233528 79 0 0.0 3.0 0.00 0.00 0.00 45 1013.1
20260501233038 79 0 1.0 5.0 0.00 0.00 0.00 45 1013.1
20260501232531 79 0 1.0 6.0 0.00 0.00 0.00 44 1013.2
20260501232030 78 335 1.0 6.0 0.00 0.00 0.00 42 1013.2
20260501231536 78 315 2.0 6.0 0.00 0.00 0.00 43 1013.2
20260501231030 79 138 1.0 5.0 0.00 0.00 0.00 42 1013.2
20260501230534 79 36 1.0 5.0 0.00 0.00 0.00 45 1013.4
20260501230043 79 360 2.0 5.0 0.00 0.00 0.00 43 1013.5
20260501225531 79 28 3.0 5.0 0.00 0.00 0.00 44 1013.4
20260501225030 78 152 0.0 5.0 0.00 0.00 0.00 47 1013.5
20260501224559 77 36 2.0 6.0 0.00 0.00 0.00 46 1013.5
20260501224029 77 337 1.0 6.0 0.00 0.00 0.00 45 1013.6
20260501223529 78 70 1.0 5.0 0.00 0.00 0.00 48 1013.8
20260501223038 77 140 2.0 5.0 0.00 0.00 0.00 47 1013.9
20260501222533 77 55 2.0 6.0 0.00 0.00 0.00 47 1013.9
20260501222027 77 145 2.0 6.0 0.00 0.00 0.00 49 1014.0
20260501221536 78 106 1.0 4.0 0.00 0.00 0.00 46 1013.9
20260501221032 78 113 1.0 5.0 0.00 0.00 0.00 44 1014.0
20260501220529 78 321 1.0 9.0 0.00 0.00 0.00 46 1014.0
20260501220043 78 340 1.0 9.0 0.00 0.00 0.00 44 1014.0
20260501215528 78 360 3.0 8.0 0.00 0.00 0.00 40 1014.1
20260501215030 78 310 2.0 8.0 0.00 0.00 0.00 41 1014.1
20260501214535 77 350 2.0 7.0 0.00 0.00 0.00 44 1014.1
20260501214029 77 352 2.0 7.0 0.00 0.00 0.00 46 1014.2
20260501213529 76 5 2.0 5.0 0.00 0.00 0.00 46 1014.2
20260501213046 76 325 1.0 8.0 0.00 0.00 0.00 49 1014.2
20260501212528 75 180 1.0 8.0 0.00 0.00 0.00 49 1014.2
20260501212033 75 123 2.0 8.0 0.00 0.00 0.00 51 1014.2
20260501211541 76 135 3.0 8.0 0.00 0.00 0.00 49 1014.2
20260501211030 76 28 1.0 8.0 0.00 0.00 0.00 49 1014.2
20260501210532 76 80 3.0 8.0 0.00 0.00 0.00 50 1014.3
20260501210038 75 336 1.0 5.0 0.00 0.00 0.00 49 1014.3
20260501205533 75 147 2.0 7.0 0.00 0.00 0.00 50 1014.3
20260501205030 75 142 2.0 8.0 0.00 0.00 0.00 49 1014.3
20260501204539 76 58 1.0 9.0 0.00 0.00 0.00 50 1014.3
20260501204030 75 326 2.0 9.0 0.00 0.00 0.00 50 1014.3
20260501203528 75 306 1.0 7.0 0.00 0.00 0.00 50 1014.3
20260501203037 74 360 2.0 7.0 0.00 0.00 0.00 51 1014.4
20260501202530 75 119 2.0 6.0 0.00 0.00 0.00 53 1014.3
20260501202030 75 143 2.0 10.0 0.00 0.00 0.00 51 1014.4
20260501201532 76 85 2.0 10.0 0.00 0.00 0.00 51 1014.3
20260501201034 75 19 2.0 7.0 0.00 0.00 0.00 52 1014.3
20260501200532 76 144 2.0 8.0 0.00 0.00 0.00 50 1014.3
20260501200046 76 9 2.0 10.0 0.00 0.00 0.00 51 1014.3
20260501195529 77 337 4.0 10.0 0.00 0.00 0.00 48 1014.4
20260501195030 76 331 3.0 8.0 0.00 0.00 0.00 48 1014.5